Flag for Japan Weather past 2 weeks in Fukushima, Japan

Now
29 °F

Chilly.


Feels Like: 21 °F
Forecast: 28 / 36 °F
Wind: 8 mph from Northwest

Location: Wakamatsu

Current Time: Feb 2, 2015 at 5:44:05 AM

Latest Report: Feb 2, 2015 at 5:00 AM


Visibility: 13 mi

Pressure: 30.21 "Hg

Humidity: 66%

Dew point: 19 °F

Location of FukushimaLocation

Historic Weather in Fukushima — Graph

°F

Fukushima temperature yesterday

Maximum temperature yesterday: 31 °F (at 11:00 AM)
Minimum temperature yesterday: 26 °F (at 1:00 AM)
Average temperature yesterday: 29 °F

Past Weeks' High & Low Weather Summary

 TemperatureHumidityPressure
High42 °F (Jan 27, 1:00 PM)98% (Jan 23, 2:00 AM)30.52 "Hg (Jan 23, 2:00 AM)
Low12 °F (Jan 21, 7:00 AM)52% (Jan 20, 3:00 PM)29.64 "Hg (Jan 23, 3:00 AM)
Average30 °F82%30.13 "Hg
* Reported Jan 18 4:00 AM — Feb 2 4:00 AM, Fukushima, Weather by CustomWeather, © 2014

Note: Actual official high and low records may vary slightly from our data, if they occured in-between our weather recording intervals... More about our weather records

Advertising

Fukushima weather history for previous 24 hours

 ConditionsComfort  
Time TempWeatherWind HumidityBarometerVisibility
4:00 AM
Feb 2
28 °FChilly.5 mph68%30.21 "Hg12 mi
3:00 AM27 °FChilly.6 mph73%30.22 "Hg12 mi
2:00 AM28 °FChilly.6 mph77%30.24 "Hg12 mi
1:00 AM28 °FChilly.10 mph76%30.24 "Hg12 mi
12:00 AM29 °FLight snow. Overcast.13 mph75%30.24 "Hg12 mi
11:00 PM
Feb 1
29 °FLight snow. Overcast.12 mph72%30.24 "Hg12 mi
10:00 PM29 °FChilly.9 mph74%30.24 "Hg12 mi
9:00 PM29 °FChilly.13 mph71%30.24 "Hg12 mi
8:00 PM29 °FChilly.12 mph68%30.23 "Hg12 mi
7:00 PM29 °FChilly.15 mph66%30.21 "Hg12 mi
6:00 PM29 °FChilly.12 mph70%30.21 "Hg12 mi
5:00 PM29 °FLight snow. Cloudy.9 mph83%30.20 "Hg12 mi
4:00 PM30 °FLight snow. Cloudy.14 mph82%30.19 "Hg1 mi
3:00 PM31 °FLight snow. Cloudy.10 mph79%30.18 "Hg9 mi
2:00 PM31 °FLight snow. Cloudy.12 mph80%30.17 "Hg2 mi
1:00 PM30 °FLight snow. Cloudy.10 mph82%30.17 "Hg4 mi
12:00 PM29 °FLight snow. Cloudy.9 mph87%30.19 "Hg1 mi
11:00 AM31 °FLight snow. Cloudy.9 mph69%30.20 "Hg12 mi
10:00 AM31 °FLight snow. Cloudy.9 mph71%30.21 "Hg12 mi
9:00 AM29 °FChilly.8 mph73%30.18 "Hg12 mi
8:00 AM28 °FChilly.12 mph73%30.17 "Hg12 mi
7:00 AM28 °FChilly.15 mph70%30.16 "Hg12 mi
6:00 AM28 °FChilly.14 mph72%30.16 "Hg12 mi
5:00 AM28 °FLight snow. Overcast.14 mph78%30.14 "Hg12 mi
Weather by CustomWeather, © 2014

See weather overviewHow to use our weather pages